Location: Mentone
(34.5413°N, 85.5351°W)
Time: 04:26:38
(UTC-05:00)

Amateur Radio Satellites - All Passes

Search period start: 31 July 2014 03:56
Search period end: 01 August 2014 03:56
Location: Mentone, 34.5413°N, 85.5351°W

Satellite Date Start Highest point End Downlink Frequencies (MHz)
Time Altitude Azimuth
PANSAT 31 Jul 03:58:22 04:01:37 26° 169° (S) 04:04:53 not established
AO-Echo 31 Jul 04:08:21 04:11:29 17° 295° (WNW) 04:14:33 ?
Gurwin Techsat 1B 31 Jul 04:17:47 04:22:40 38° 289° (WNW) 04:27:31 435.225 FM
ISS 31 Jul 04:22:46 04:24:34 14° 28° (NNE) 04:26:21 145.800 FM
Uosat F 31 Jul 04:27:15 04:31:54 37° 99° (E) 04:36:31 435.120 FM
OPAL 31 Jul 04:28:46 04:33:28 44° 259° (WSW) 04:38:12 ?
KITSAT 1 31 Jul 04:55:47 05:03:16 43° 109° (ESE) 05:10:45 435.175 FM
JAS-1B 31 Jul 04:58:46 05:05:53 27° 301° (WNW) 05:12:15 435.800 - 435.900 CW/SSB
STRAND 1 31 Jul 05:20:05 05:21:53 12° 63° (ENE) 05:23:42 ?
AO-7 31 Jul 05:32:48 05:41:08 78° 289° (WNW) 05:49:23 29.400 - 29.500 MHz
MaSat-1 31 Jul 05:33:56 05:38:06 23° 57° (ENE) 05:42:04 437.345 MHz
TMSAT-1 31 Jul 05:35:16 05:36:01 10° 298° (WNW) 05:36:46 436.925 FM
PANSAT 31 Jul 05:37:56 05:41:26 33° 182° (S) 05:44:56 not established
Saudisat 1A 31 Jul 05:50:30 05:53:39 19° 110° (ESE) 05:56:49 436.775 MHz
ISS 31 Jul 05:58:16 06:01:38 77° 223° (SW) 06:04:58 145.800 FM
JAS-2 31 Jul 06:00:17 06:04:26 21° 93° (E) 06:08:21 435.800 - 435.900 CW/SSB, 435.910 FM
Uosat F 31 Jul 06:06:43 06:10:24 21° 293° (WNW) 06:14:04 435.120 FM
KITSAT 1 31 Jul 06:51:12 06:58:38 39° 306° (NW) 07:06:07 435.175 FM
STRAND 1 31 Jul 06:55:17 07:00:24 73° 258° (WSW) 07:05:33 ?
Hamsat 31 Jul 06:57:24 07:01:40 61° 284° (WNW) 07:05:56 145.90 MHz
MaSat-1 31 Jul 07:10:44 07:15:33 39° 254° (WSW) 07:20:00 437.345 MHz
PANSAT 31 Jul 07:18:12 07:21:12 22° 194° (SSW) 07:24:12 not established
SO-67 31 Jul 07:23:01 07:26:09 31° 98° (E) 07:29:17 435.3500 MHz FM
AO-7 31 Jul 07:28:25 07:32:33 15° 307° (NW) 07:36:40 29.400 - 29.500 MHz
Saudisat 1A 31 Jul 07:28:56 07:32:58 35° 305° (NW) 07:37:02 436.775 MHz
JAS-2 31 Jul 07:44:29 07:49:45 39° 290° (WNW) 07:54:36 435.800 - 435.900 CW/SSB, 435.910 FM
PCSat 31 Jul 08:07:50 08:10:07 13° 47° (NE) 08:12:23 145.825 MHz
SO-67 31 Jul 08:57:47 08:58:53 11° 291° (WNW) 08:59:58 435.3500 MHz FM
Sapphire 31 Jul 09:15:50 09:21:00 43° 59° (ENE) 09:26:07 437.095 MHz 1200 baud AX-25 AFSK
UKube-1 31 Jul 09:23:35 09:27:18 27° 97° (E) 09:31:00 145.840 MHz, 145.915 MHz
HO-68 31 Jul 09:23:54 09:30:48 50° 101° (E) 09:37:39 435.675 MHz FM
PCSat 31 Jul 09:48:48 09:54:16 89° 245° (WSW) 09:59:40 145.825 MHz
Oscar 11 31 Jul 10:05:39 10:09:48 44° 99° (E) 10:13:57 145.825 FM, Beacon 2401.500 USB
FUNcube-1 31 Jul 10:34:15 10:38:01 32° 98° (E) 10:41:49 145.950 - 145.970 MHz USB
RS-15 31 Jul 10:50:51 10:56:08 15° 99° (E) 11:01:19 29.354 - 29.394 USB, Beacon 29.352 USB
UKube-1 31 Jul 11:00:02 11:03:19 21° 291° (WNW) 11:06:36 145.840 MHz, 145.915 MHz
Sapphire 31 Jul 11:00:02 11:04:04 22° 254° (WSW) 11:08:05 437.095 MHz 1200 baud AX-25 AFSK
SO-50 31 Jul 11:03:47 11:07:44 32° 113° (ESE) 11:11:44 436.795 FM
HO-68 31 Jul 11:12:18 11:18:06 28° 297° (WNW) 11:23:54 435.675 MHz FM
Oscar 11 31 Jul 11:43:24 11:45:34 14° 293° (WNW) 11:47:45 145.825 FM, Beacon 2401.500 USB
Oscar 19 31 Jul 12:07:13 12:08:22 11° 62° (ENE) 12:09:32 437.125 CW, 437.150 USB
FUNcube-1 31 Jul 12:11:24 12:14:10 17° 291° (WNW) 12:16:56 145.950 - 145.970 MHz USB
Oscar 16 31 Jul 12:33:02 12:36:53 22° 67° (ENE) 12:40:45 437.025 USB, Beacon 2401.1428
SO-50 31 Jul 12:44:46 12:48:18 23° 309° (NW) 12:51:54 436.795 FM
UOSAT-12 31 Jul 12:50:12 12:54:05 28° 112° (ESE) 12:58:04 437.025 FM, 437.400 FM
KITSAT 1 31 Jul 12:54:42 12:58:09 13° 36° (NE) 13:01:36 435.175 FM
RS-15 31 Jul 12:55:31 13:06:44 81° 116° (ESE) 13:17:40 29.354 - 29.394 USB, Beacon 29.352 USB
ITAMSAT 1 31 Jul 13:00:00 13:03:22 18° 65° (ENE) 13:06:45 435.822 SSB
Uribyol 2 31 Jul 13:17:37 13:21:58 28° 69° (ENE) 13:26:19 436.500 FM
AO-27 31 Jul 13:18:47 13:23:08 28° 69° (ENE) 13:27:30 436.795 MHz FM
AO-Echo 31 Jul 13:37:15 13:42:14 43° 72° (ENE) 13:47:15 ?
Oscar 19 31 Jul 13:41:53 13:46:59 78° 257° (WSW) 13:52:08 437.125 CW, 437.150 USB
JAS-1B 31 Jul 13:45:14 13:53:31 44° 66° (ENE) 14:02:34 435.800 - 435.900 CW/SSB
Gurwin Techsat 1B 31 Jul 13:56:22 14:00:38 25° 68° (ENE) 14:04:55 435.225 FM
Oscar 16 31 Jul 14:11:16 14:15:58 37° 262° (W) 14:20:42 437.025 USB, Beacon 2401.1428
UOSAT-12 31 Jul 14:30:15 14:34:10 27° 307° (NW) 14:38:09 437.025 FM, 437.400 FM
ITAMSAT 1 31 Jul 14:37:24 14:42:26 49° 260° (W) 14:47:29 435.822 SSB
AO-7 31 Jul 14:38:06 14:43:53 21° 57° (ENE) 14:49:39 29.400 - 29.500 MHz
KITSAT 1 31 Jul 14:47:28 14:55:26 58° 59° (ENE) 15:03:19 435.175 FM
Uribyol 2 31 Jul 14:56:49 15:01:18 30° 263° (W) 15:05:49 436.500 FM
AO-27 31 Jul 14:57:57 15:02:30 30° 263° (W) 15:07:04 436.795 MHz FM
TMSAT-1 31 Jul 15:08:45 15:14:03 88° 257° (WSW) 15:19:23 436.925 FM
RS-15 31 Jul 15:11:12 15:20:16 28° 318° (NW) 15:29:18 29.354 - 29.394 USB, Beacon 29.352 USB
AO-Echo 31 Jul 15:17:18 15:21:06 20° 266° (W) 15:24:56 ?
JAS-1B 31 Jul 15:35:32 15:43:46 44° 264° (W) 15:52:59 435.800 - 435.900 CW/SSB
Gurwin Techsat 1B 31 Jul 15:35:37 15:40:24 34° 262° (W) 15:45:12 435.225 FM
Uosat F 31 Jul 15:37:08 15:41:44 37° 71° (ENE) 15:46:20 435.120 FM
Saudisat 1A 31 Jul 15:58:31 16:02:54 66° 59° (ENE) 16:07:15 436.775 MHz
AO-7 31 Jul 16:27:22 16:35:43 79° 254° (WSW) 16:44:08 29.400 - 29.500 MHz
OPAL 31 Jul 16:41:37 16:46:42 64° 104° (ESE) 16:51:49 ?
KITSAT 1 31 Jul 16:43:51 16:50:15 27° 255° (WSW) 16:56:37 435.175 FM
Uosat F 31 Jul 17:16:47 17:20:33 21° 265° (W) 17:24:21 435.120 FM
RS-15 31 Jul 17:35:53 17:38:16 11° 354° (N) 17:40:38 29.354 - 29.394 USB, Beacon 29.352 USB
Hamsat 31 Jul 17:47:10 17:51:15 58° 76° (ENE) 17:55:23 145.90 MHz
JAS-2 31 Jul 17:49:31 17:57:10 61° 73° (ENE) 18:04:19 435.800 - 435.900 CW/SSB, 435.910 FM
OPAL 31 Jul 18:22:30 18:25:01 14° 298° (WNW) 18:27:32 ?
AO-7 31 Jul 18:26:46 18:29:31 12° 269° (W) 18:32:16 29.400 - 29.500 MHz
STRAND 1 31 Jul 19:09:37 19:14:35 51° 100° (E) 19:19:31 ?
MaSat-1 31 Jul 19:22:53 19:25:03 14° 99° (E) 19:27:23 437.345 MHz
SO-67 31 Jul 19:25:14 19:28:38 56° 260° (W) 19:32:03 435.3500 MHz FM
JAS-2 31 Jul 19:36:18 19:42:20 24° 266° (W) 19:48:09 435.800 - 435.900 CW/SSB, 435.910 FM
SO-50 31 Jul 19:39:27 19:42:08 15° 47° (NE) 19:44:49 436.795 FM
HO-68 31 Jul 19:49:37 19:55:20 27° 63° (ENE) 20:01:03 435.675 MHz FM
RS-15 31 Jul 19:50:04 19:57:26 19° 32° (NNE) 20:04:53 29.354 - 29.394 USB, Beacon 29.352 USB
UKube-1 31 Jul 20:16:46 20:19:31 17° 67° (ENE) 20:22:16 145.840 MHz, 145.915 MHz
STRAND 1 31 Jul 20:50:13 20:53:19 16° 295° (WNW) 20:56:24 ?
Oscar 11 31 Jul 20:57:56 21:01:18 23° 70° (ENE) 21:04:40 145.825 FM, Beacon 2401.500 USB
MaSat-1 31 Jul 20:57:58 21:01:45 39° 299° (WNW) 21:06:09 437.345 MHz
ISS 31 Jul 21:02:24 21:04:48 19° 128° (SE) 21:07:13 145.800 FM
SO-50 31 Jul 21:18:22 21:23:07 66° 243° (WSW) 21:27:54 436.795 FM
UOSAT-12 31 Jul 21:24:26 21:26:19 12° 45° (NE) 21:28:11 437.025 FM, 437.400 FM
FUNcube-1 31 Jul 21:28:24 21:31:16 18° 69° (ENE) 21:34:06 145.950 - 145.970 MHz USB
HO-68 31 Jul 21:35:39 21:42:36 52° 259° (WSW) 21:49:34 435.675 MHz FM
UKube-1 31 Jul 21:51:21 21:55:23 37° 261° (W) 21:59:27 145.840 MHz, 145.915 MHz
RS-15 31 Jul 22:01:17 22:12:20 67° 58° (ENE) 22:23:47 29.354 - 29.394 USB, Beacon 29.352 USB
Oscar 11 31 Jul 22:33:49 22:37:20 25° 264° (W) 22:40:53 145.825 FM, Beacon 2401.500 USB
ISS 31 Jul 22:38:16 22:41:19 33° 323° (NW) 22:44:24 145.800 FM
PCSat 31 Jul 22:45:31 22:49:17 20° 105° (ESE) 22:53:04 145.825 MHz
UOSAT-12 31 Jul 23:02:19 23:07:03 81° 242° (WSW) 23:11:41 437.025 FM, 437.400 FM
FUNcube-1 31 Jul 23:03:33 23:07:25 32° 262° (W) 23:11:13 145.950 - 145.970 MHz USB
Sapphire 31 Jul 23:53:45 23:59:08 82° 114° (ESE) 00:04:34 437.095 MHz 1200 baud AX-25 AFSK
RS-15 01 Aug 00:14:49 00:23:50 30° 255° (WSW) 00:33:11 29.354 - 29.394 USB, Beacon 29.352 USB
PCSat 01 Aug 00:27:07 00:32:18 46° 300° (WNW) 00:37:31 145.825 MHz
Uribyol 2 01 Aug 01:35:32 01:37:39 12° 92° (E) 01:39:45 436.500 FM
AO-27 01 Aug 01:37:03 01:39:08 12° 92° (E) 01:41:12 436.795 MHz FM
JAS-1B 01 Aug 01:39:37 01:43:25 13° 84° (E) 01:46:58 435.800 - 435.900 CW/SSB
Sapphire 01 Aug 01:40:35 01:43:12 14° 312° (NW) 01:45:50 437.095 MHz 1200 baud AX-25 AFSK
AO-Echo 01 Aug 01:49:37 01:52:50 17° 93° (E) 01:55:58 ?
PANSAT 01 Aug 01:55:34 01:57:02 12° 158° (SSE) 01:58:29 not established
Oscar 19 01 Aug 01:57:08 02:02:10 50° 100° (E) 02:07:10 437.125 CW, 437.150 USB
Gurwin Techsat 1B 01 Aug 02:17:32 02:19:47 13° 92° (E) 02:22:02 435.225 FM
Oscar 16 01 Aug 02:26:00 02:31:11 80° 284° (WNW) 02:36:21 437.025 USB, Beacon 2401.1428
ITAMSAT 1 01 Aug 02:53:42 02:58:54 80° 103° (ESE) 03:04:03 435.822 SSB
Uribyol 2 01 Aug 03:12:23 03:17:29 62° 286° (WNW) 03:22:33 436.500 FM
AO-27 01 Aug 03:13:53 03:19:01 63° 286° (WNW) 03:24:06 436.795 MHz FM
JAS-1B 01 Aug 03:26:19 03:35:25 85° 104° (ESE) 03:42:58 435.800 - 435.900 CW/SSB
AO-Echo 01 Aug 03:27:06 03:31:47 42° 288° (WNW) 03:36:18 ?
TMSAT-1 01 Aug 03:28:22 03:33:30 50° 100° (E) 03:38:36 436.925 FM
PANSAT 01 Aug 03:33:23 03:36:40 26° 170° (S) 03:39:58 not established
Oscar 19 01 Aug 03:37:47 03:41:04 17° 294° (WNW) 03:44:20 437.125 CW, 437.150 USB
Uosat F 01 Aug 03:49:49 03:52:33 15° 93° (E) 03:55:16 435.120 FM
